Simultaneous Nadir Overpasses (SNOs) Predictions

Prediction of SNOs between METOP-A and TERRA Satellite Orbit:

Table of predicted SNOs for the next 14.0 days since TLE Epoch: 3/28/2015
Index Date (METOP-A) Time (METOP-A) Lat,Lon (METOP-A) SZA (METOP-A ) Date (TERRA) Time (TERRA) Lat,Lon (TERRA) SZA (TERRA ) Distance(km) Time Diff (sec)
1 03/30/2015 00:35:34 -81.33, 38.90 99.52 03/30/2015 00:36:31 -81.34, 38.91 99.49 0.60 57
2 03/30/2015 01:26:14 81.33,-153.59 80.49 03/30/2015 01:25:58 81.32,-153.68 80.47 1.77 16
3 04/01/2015 20:09:55 -81.33, 105.34 100.58 04/01/2015 20:10:47 -81.33, 105.19 100.58 2.59 52
4 04/01/2015 21:00:35 81.33, -87.18 79.43 04/01/2015 21:00:13 81.33, -87.05 79.43 2.18 22
5 04/04/2015 15:44:16 -81.33, 171.70 101.64 04/04/2015 15:45:02 -81.33, 171.64 101.62 1.01 46
6 04/04/2015 16:34:55 81.34, -20.46 78.42 04/04/2015 16:34:28 81.33, -20.63 78.38 2.92 27
7 04/07/2015 11:18:36 -81.33,-121.62 102.64 04/07/2015 11:19:16 -81.34,-121.72 102.63 1.72 40
8 04/07/2015 12:09:16 81.33, 45.80 77.36 04/07/2015 12:08:42 81.34, 45.97 77.37 3.04 34
9 04/10/2015 06:52:56 -81.33, -55.42 103.69 04/10/2015 06:53:29 -81.34, -55.29 103.66 2.30 33




NCC Satellite Simultaneous Nadir Overpasses (SNOs) Prediction Service
